Flag for Turkey Weather past 2 weeks in Istanbul, Turkey

Now
57 °F

Broken clouds.


Feels Like: 55 °F
Forecast: 49 / 58 °F
Wind: 10 mph from North

Location: Istanbul Ataturk Airport

Current Time: Mar 29, 2015 at 1:56:40 PM

Latest Report: Mar 29, 2015 at 1:20 PM


Visibility: 4 mi

Pressure: 29.77 "Hg

Humidity: 77%

Dew point: 50 °F

Location of IstanbulLocation

Historic Weather in Istanbul — Graph

°F

Istanbul temperature yesterday

Maximum temperature yesterday: 61 °F (at 12:20 AM)
Minimum temperature yesterday: 52 °F (at 7:50 AM)
Average temperature yesterday: 56 °F

Past Weeks' High & Low Weather Summary

 TemperatureHumidityPressure
High75 °F (Mar 27, 3:50 PM)94% (Mar 15, 9:20 AM)30.51 "Hg (Mar 15, 9:20 AM)
Low37 °F (Mar 18, 2:50 AM)29% (Mar 25, 11:50 AM)29.62 "Hg (Mar 28, 2:20 PM)
Average49 °F69%30.12 "Hg
* Reported Mar 14 11:20 AM — Mar 29 12:50 PM, Istanbul, Weather by CustomWeather, © 2015

Note: Actual official high and low records may vary slightly from our data, if they occured in-between our weather recording intervals... More about our weather records

Advertising

Istanbul weather history for previous 24 hours

 ConditionsComfort  
Time TempWeatherWind HumidityBarometerVisibility
12:50 PM
Sun, Mar 29
55 °FPartly sunny.8 mph77%29.80 "Hg4 mi
12:20 PM57 °FPartly sunny.3 mph77%29.80 "Hg4 mi
11:50 AM57 °FSprinkles. Partly sunny.5 mph82%29.80 "Hg4 mi
11:20 AM55 °FSprinkles. Partly sunny.2 mph88%29.80 "Hg4 mi
10:50 AM55 °FBroken clouds.5 mph82%29.77 "Hg4 mi
10:20 AM57 °FBroken clouds.5 mph82%29.77 "Hg4 mi
9:50 AM55 °FBroken clouds.5 mph88%29.77 "Hg4 mi
9:20 AM55 °FBroken clouds.6 mph88%29.77 "Hg4 mi
8:50 AM54 °FFog.5 mph94%29.77 "Hg2 mi
8:20 AM54 °FFog.5 mph88%29.77 "Hg3 mi
7:50 AM54 °FSprinkles. Partly cloudy.3 mph94%29.77 "Hg4 mi
7:20 AM52 °FSprinkles. Fog.2 mph94%29.74 "Hg2 mi
6:50 AM52 °FPartly cloudy.1 mph94%29.74 "Hg4 mi
6:20 AM52 °FPartly cloudy.2 mph94%29.74 "HgN/A
5:50 AM52 °FSprinkles. Partly cloudy.1 mph94%29.74 "HgN/A
5:20 AM52 °FSprinkles. Partly cloudy.No wind94%29.74 "Hg4 mi
4:50 AM52 °FSprinkles. Partly cloudy.3 mph94%29.74 "Hg4 mi
4:20 AM52 °FSprinkles. Partly cloudy.5 mph94%29.74 "Hg4 mi
2:50 AM52 °FSprinkles. Partly cloudy.1 mph88%29.74 "Hg4 mi
2:20 AM54 °FSprinkles. Partly cloudy.5 mph88%29.74 "Hg4 mi
1:50 AM54 °FSprinkles. Passing clouds.6 mph88%29.74 "Hg4 mi
1:20 AM54 °FPartly cloudy.5 mph82%29.74 "HgN/A
12:50 AM52 °FPartly cloudy.1 mph94%29.74 "HgN/A
12:20 AM52 °FPartly cloudy.3 mph88%29.74 "HgN/A
11:50 PM
Sat, Mar 28
52 °FSprinkles. Partly cloudy.3 mph94%29.74 "HgN/A
11:20 PM52 °FSprinkles. Partly cloudy.7 mph94%29.74 "HgN/A
10:50 PM52 °FSprinkles. Partly cloudy.7 mph88%29.74 "HgN/A
10:20 PM52 °FSprinkles. Partly cloudy.9 mph94%29.74 "HgN/A
9:50 PM54 °FSprinkles. Partly cloudy.9 mph82%29.74 "HgN/A
9:20 PM54 °FPartly cloudy.6 mph82%29.71 "HgN/A
8:50 PM55 °FPartly cloudy.3 mph77%29.71 "HgN/A
8:20 PM55 °FPartly cloudy.6 mph77%29.71 "HgN/A
7:50 PM54 °FPartly cloudy.6 mph82%29.68 "HgN/A
7:20 PM54 °FSprinkles. Partly cloudy.7 mph82%29.68 "HgN/A
7:03 PM54 °FSprinkles. Partly cloudy.7 mph82%29.68 "HgN/A
6:50 PM54 °FPassing clouds.8 mph82%29.68 "HgN/A
6:20 PM54 °FScattered clouds.10 mph82%29.68 "HgN/A
5:50 PM55 °FScattered clouds.8 mph72%29.65 "HgN/A
5:20 PM57 °FScattered clouds.6 mph67%29.65 "HgN/A
4:50 PM59 °FPassing clouds.7 mph63%29.62 "HgN/A
4:20 PM61 °FPassing clouds.6 mph52%29.62 "HgN/A
3:50 PM61 °FPassing clouds.5 mph52%29.65 "HgN/A
3:20 PM59 °FPassing clouds.7 mph59%29.62 "HgN/A
2:50 PM59 °FScattered clouds.7 mph63%29.62 "HgN/A
2:20 PM59 °FScattered clouds.8 mph59%29.62 "HgN/A
1:50 PM59 °FPartly sunny.8 mph63%29.65 "HgN/A
1:20 PM59 °FPartly sunny.7 mph63%29.65 "HgN/A
Weather by CustomWeather, © 2015

See weather overviewHow to use our weather pages